TimeEDT,TemperatureF,Dew PointF,Humidity,Sea Level PressureIn,VisibilityMPH,Wind Direction,Wind SpeedMPH,Gust SpeedMPH,PrecipitationIn,Events,Conditions,WindDirDegrees,DateUTC
12:53 AM,39.9,28.0,63,30.08,10.0,Calm,Calm,-,N/A,,Clear,0,2012-11-03 04:53:00
1:53 AM,39.0,27.0,62,30.07,10.0,Calm,Calm,-,N/A,,Clear,0,2012-11-03 05:53:00
2:53 AM,37.9,27.0,65,30.08,10.0,Calm,Calm,-,N/A,,Clear,0,2012-11-03 06:53:00
3:53 AM,37.9,27.0,65,30.09,10.0,Calm,Calm,-,N/A,,Clear,0,2012-11-03 07:53:00
4:53 AM,36.0,27.0,70,30.11,10.0,Calm,Calm,-,N/A,,Clear,0,2012-11-03 08:53:00
5:53 AM,36.0,28.0,73,30.12,10.0,Calm,Calm,-,N/A,,Clear,0,2012-11-03 09:53:00
6:53 AM,35.1,28.0,76,30.14,10.0,Calm,Calm,-,N/A,,Clear,0,2012-11-03 10:53:00
7:53 AM,35.1,27.0,72,30.14,10.0,Calm,Calm,-,N/A,,Clear,0,2012-11-03 11:53:00
8:53 AM,34.0,28.9,82,30.16,10.0,Calm,Calm,-,N/A,,Clear,0,2012-11-03 12:53:00
9:53 AM,39.0,28.9,67,30.16,10.0,Calm,Calm,-,N/A,,Clear,0,2012-11-03 13:53:00
10:53 AM,43.0,30.9,62,30.17,10.0,Calm,Calm,-,N/A,,Clear,0,2012-11-03 14:53:00
11:53 AM,45.0,30.0,56,30.16,10.0,Calm,Calm,-,N/A,,Overcast,0,2012-11-03 15:53:00
12:53 PM,46.9,30.0,52,30.12,10.0,Variable,3.5,-,N/A,,Mostly Cloudy,0,2012-11-03 16:53:00
1:53 PM,44.1,36.0,73,30.10,8.0,ESE,3.5,-,0.02,Rain,Light Rain,110,2012-11-03 17:53:00
2:53 PM,44.1,39.0,82,30.09,10.0,Calm,Calm,-,0.00,Rain,Light Rain,0,2012-11-03 18:53:00
3:53 PM,46.9,37.9,71,30.07,10.0,Calm,Calm,-,0.00,,Mostly Cloudy,0,2012-11-03 19:53:00
4:53 PM,46.9,37.9,71,30.04,10.0,Variable,3.5,-,N/A,,Overcast,0,2012-11-03 20:53:00
5:53 PM,46.0,35.1,66,30.03,10.0,Calm,Calm,-,N/A,,Overcast,0,2012-11-03 21:53:00
6:53 PM,46.0,35.1,66,30.03,10.0,Calm,Calm,-,N/A,,Overcast,0,2012-11-03 22:53:00
7:53 PM,43.0,37.0,80,30.05,10.0,Variable,4.6,-,0.05,,Overcast,0,2012-11-03 23:53:00
8:05 PM,42.8,37.4,81,30.08,7.0,Variable,4.6,-,0.01,Rain-Thunderstorm,Rain,0,2012-11-04 00:05:00
8:50 PM,41.0,37.4,87,30.05,10.0,Calm,Calm,-,0.07,Rain,Light Rain,0,2012-11-04 00:50:00
8:53 PM,41.0,37.9,89,30.07,10.0,Calm,Calm,-,0.07,,Overcast,0,2012-11-04 00:53:00
9:53 PM,39.9,39.0,97,30.08,10.0,Calm,Calm,-,0.00,,Overcast,0,2012-11-04 01:53:00
10:03 PM,39.2,37.4,93,30.06,10.0,Calm,Calm,-,N/A,,Overcast,0,2012-11-04 02:03:00
10:38 PM,39.2,37.4,93,30.06,10.0,Calm,Calm,-,N/A,,Overcast,0,2012-11-04 02:38:00
10:53 PM,39.9,37.9,93,30.06,10.0,ESE,4.6,-,0.00,Rain,Light Rain,110,2012-11-04 02:53:00
11:13 PM,39.2,39.2,100,30.03,9.0,Variable,4.6,-,0.00,,Overcast,0,2012-11-04 03:13:00
11:53 PM,39.9,39.0,97,30.06,10.0,Calm,Calm,-,0.00,,Overcast,0,2012-11-04 03:53:00